Regional Weather Roundup
Issued by NWS

Home | Current Version | Previous Version | Graphics & Text | Print | Product List | Glossary On
Versions: 1 2 3 4 5 6 7 8 9 10 11 12 13 14 15 16 17 18 19 20 21 22 23 24 25 26 27 28 29 30 31 32 33 34 35 36 37 38 39 40 41 42 43 44 45 46 47 48 49 50
000
ASUS43 KBIS 260120
RWRND

NORTH DAKOTA REGIONAL WEATHER ROUNDUP
NATIONAL WEATHER SERVICE BISMARCK ND
800 PM CDT FRI JUL 25 2014

NOTE: "FAIR" INDICATES FEW OR NO CLOUDS BELOW 12,000 FEET WITH NO
SIGNIFICANT WEATHER AND/OR OBSTRUCTIONS TO VISIBILITY.


NDZ001>003-009>011-017-260200-
NORTHWEST NORTH DAKOTA

CITY           SKY/WX    TMP DP  RH WIND       PRES   REMARKS
WILLISTON      SUNNY     83  36  18 W13       29.74F
MINOT          SUNNY     77  51  40 S7        29.75S
MINOT AFB      SUNNY     77  57  51 S5        29.74F
$$

NDZ018>021-031>035-040>046-260200-
SOUTHWEST NORTH DAKOTA

CITY           SKY/WX    TMP DP  RH WIND       PRES   REMARKS
BISMARCK       SUNNY     80  48  32 SW3       29.80F
DICKINSON      SUNNY     80  53  39 S9        29.79S
GARRISON         N/A     74  57  55 SE7       29.76F
HETTINGER ARPT SUNNY     79  50  36 SE9       29.84F
$$

NDZ004>008-012>016-024-026-027-054-260200-
NORTHEAST NORTH DAKOTA

CITY           SKY/WX    TMP DP  RH WIND       PRES   REMARKS
GRAND FORKS    SUNNY     75  59  57 W6        29.74R
GRND FRKS AFB  SUNNY     76  60  56 W5        29.76R
DEVILS LAKE    SUNNY     73  54  49 W7        29.77S
$$

NDZ022-023-025-028>030-036>039-047>053-260200-
SOUTHEAST NORTH DAKOTA

CITY           SKY/WX    TMP DP  RH WIND       PRES   REMARKS
FARGO          CLEAR     78  55  44 NW8       29.76R
JAMESTOWN      SUNNY     76  56  49 NW6       29.80R
$$




USA.gov is the U.S. government's official web portal to all federal, state and local government web resources and services.